DIAMOND GREEN (42785 NORAD) Tracking and Keplerian Element Data

This shows tracking and keplerian element data for the satellite.

Feedback or suggestion? Click here.




ElementValue
Catalog42785
NameDIAMOND GREEN
Epoch Orbit9251
Epoch Day53.15190527
Epoch Year2019
RAAN113.2857
Inclination97.3679
Eccentricity0.0010483
Argument of Perigee282.0177
Mean Anonmoly77.9884
Mean Motion15.21948161
Decay Rate9.05E-06
L11 42785U 17036W 19053.15190527 .00000905 00000-0 42689-4 0 9998
L22 42785 97.3679 113.2857 0010483 282.0177 77.9884 15.21948161 92517

Live tracking and technical data element details for DIAMOND GREEN (NORAD 42785). DIAMOND GREEN can be tracked NOW for your location showing map with azimuth and elevation plus other details from your city location.

Track the satellite on the map from your city or location and see movement details for azimuth, elevation, latitude, longitude, range, height, and movement on the map or in text.







IsCatalogInMostPopularTable: catalog: 42785, numindb: 149
Update: records affected: 1



GetName: 42785 DIAMOND GREEN

Hit Count: updated at: Fri, 22 Feb 2019 22:43:33 GMT